Weather History for Novato, CA

Change the Weather History Date:

Monday, July 14, 2014

  Actual Average (KAPC) Record (KAPC)
Temperature  
Mean Temperature 74 °F 66 °F  
Max Temperature 96 °F 78 °F 95 °F (2009)
Min Temperature 53 °F 53 °F 47 °F (2011)
Degree Days  
Heating Degree Days 0    
Month to date heating degree days  
Since 1 June heating degree days  
Since 1 July heating degree days  
Cooling Degree Days 10    
Month to date cooling degree days  
Year to date cooling degree days  
Since 1 June cooling degree days  
Growing Degree Days 24 (Base 50)    
Moisture  
Dew Point 55 °F    
Average Humidity 61    
Maximum Humidity 88    
Minimum Humidity 25    
Precipitation  
Precipitation 0.06 in - 0.00 in (2014)
Month to date precipitation  
Year to date precipitation  
Since 1 July precipitation  
Sea Level Pressure  
Sea Level Pressure 29.88 in    
Wind  
Wind Speed 3 mph (NE)    
Max Wind Speed 16 mph    
Max Gust Speed -    
Visibility 10 miles    
Events      
T = Trace of Precipitation, MM = Missing Value Source: NWS Daily Summary

Daily Weather History Graph

Daily Weather History Graph

Search for Another Location

Airport:

Trip Planner

Search our weather history database for the weather conditions in past years. The results will help you decide how hot, cold, wet, or windy it might be!

Date:

Astronomy

Jul. 14, 2014 Rise Set
Actual Time 5:58 AM PDT 8:33 PM PDT
Civil Twilight 5:27 AM PDT 9:03 PM PDT
Nautical Twilight 4:49 AM PDT 9:41 PM PDT
Astronomical Twilight 4:07 AM PDT 10:24 PM PDT
Moon 10:10 PM PDT (7/14) 8:44 AM PDT (7/14)
Length of Visible Light 15h 35m
Length of Day
14h 34m
Waning Gibbous, 92% of the Moon is Illuminated
Jul 14
Waning Gibbous
Jul 18
Last Quarter
Jul 26
New
Aug 3
First Quarter
Aug 10
Full

Hourly Weather History & Observations

Time (PDT) Temp. Heat Index Dew Point Humidity Pressure Visibility Wind Dir Wind Speed Gust Speed Precip Events Conditions
12:15 AM 59.0 °F - 53.6 °F 82% 29.88 in 10.0 mi Calm Calm - N/A   Clear
12:35 AM 57.2 °F - 51.8 °F 82% 29.88 in 10.0 mi East 3.5 mph - N/A   Clear
12:55 AM 57.2 °F - 51.8 °F 82% 29.88 in 10.0 mi NNW 3.5 mph - N/A   Clear
1:15 AM 57.2 °F - 53.6 °F 88% 29.88 in 10.0 mi Calm Calm - N/A   Clear
1:35 AM 59.0 °F - 53.6 °F 82% 29.88 in 10.0 mi Calm Calm - N/A   Clear
1:55 AM 59.0 °F - 53.6 °F 82% 29.87 in 10.0 mi South 3.5 mph - N/A   Clear
2:15 AM 53.6 °F - 48.2 °F 82% 29.87 in 10.0 mi Calm Calm - N/A   Clear
2:35 AM 55.4 °F - 50.0 °F 82% 29.87 in 10.0 mi Calm Calm - N/A   Clear
2:55 AM 55.4 °F - 50.0 °F 82% 29.86 in 10.0 mi NNW 3.5 mph - N/A   Clear
3:15 AM 53.6 °F - 50.0 °F 88% 29.86 in 10.0 mi North 4.6 mph - N/A   Clear
3:35 AM 55.4 °F - 50.0 °F 82% 29.86 in 10.0 mi Calm Calm - N/A   Clear
3:55 AM 57.2 °F - 50.0 °F 77% 29.86 in 10.0 mi NW 3.5 mph - N/A   Clear
4:15 AM 57.2 °F - 51.8 °F 82% 29.86 in 10.0 mi NNW 3.5 mph - N/A   Clear
4:35 AM 55.4 °F - 50.0 °F 82% 29.86 in 10.0 mi Calm Calm - N/A   Clear
4:55 AM 55.4 °F - 50.0 °F 82% 29.86 in 10.0 mi NNW 3.5 mph - N/A   Clear
5:15 AM 55.4 °F - 50.0 °F 82% 29.86 in 10.0 mi Calm Calm - N/A   Clear
5:35 AM 55.4 °F - 50.0 °F 82% 29.86 in 10.0 mi Calm Calm - N/A   Clear
5:55 AM 53.6 °F - 48.2 °F 82% 29.86 in 10.0 mi North 3.5 mph - N/A   Clear
6:15 AM 55.4 °F - 50.0 °F 82% 29.86 in 10.0 mi Calm Calm - N/A   Clear
6:55 AM 57.2 °F - 50.0 °F 77% 29.87 in 10.0 mi Calm Calm - N/A   Clear
7:15 AM 59.0 °F - 53.6 °F 82% 29.87 in 10.0 mi Calm Calm - N/A   Clear
7:35 AM 60.8 °F - 53.6 °F 77% 29.88 in 10.0 mi Calm Calm - N/A   Clear
7:55 AM 62.6 °F - 53.6 °F 72% 29.88 in 10.0 mi Calm Calm - N/A   Clear
8:15 AM 64.4 °F - 55.4 °F 73% 29.88 in 10.0 mi Calm Calm - N/A   Clear
8:35 AM 66.2 °F - 55.4 °F 68% 29.88 in 10.0 mi Calm Calm - N/A   Clear
8:55 AM 68.0 °F - 55.4 °F 64% 29.89 in 10.0 mi East 3.5 mph - N/A   Clear
9:15 AM 69.8 °F - 57.2 °F 64% 29.89 in 10.0 mi ESE 3.5 mph - N/A   Clear
9:35 AM 71.6 °F - 57.2 °F 60% 29.89 in 10.0 mi Calm Calm - N/A   Clear
9:55 AM 73.4 °F - 57.2 °F 57% 29.88 in 10.0 mi SSE 3.5 mph - N/A   Clear
10:15 AM 73.4 °F - 55.4 °F 53% 29.88 in 10.0 mi ENE 3.5 mph - N/A   Clear
10:35 AM 77.0 °F - 57.2 °F 50% 29.88 in 10.0 mi East 4.6 mph - N/A   Clear
10:55 AM 78.8 °F - 59.0 °F 51% 29.88 in 10.0 mi Calm Calm - N/A   Clear
11:15 AM 80.6 °F 81.1 °F 59.0 °F 48% 29.88 in 10.0 mi ESE 3.5 mph - N/A   Clear
11:35 AM 82.4 °F 82.9 °F 60.8 °F 48% 29.88 in 10.0 mi ESE 4.6 mph - N/A   Clear
11:55 AM 82.4 °F 82.9 °F 60.8 °F 48% 29.88 in 10.0 mi East 6.9 mph - N/A   Clear
12:15 PM 82.4 °F 82.9 °F 60.8 °F 48% 29.87 in 10.0 mi ESE 8.1 mph - N/A   Clear
12:35 PM 84.2 °F 83.8 °F 59.0 °F 42% 29.87 in 10.0 mi ESE 6.9 mph - N/A   Clear
12:55 PM 86.0 °F 85.4 °F 59.0 °F 40% 29.87 in 10.0 mi ESE 6.9 mph - N/A   Clear
1:15 PM 87.8 °F 87.1 °F 59.0 °F 38% 29.87 in 10.0 mi SE 4.6 mph - N/A   Clear
1:35 PM 89.6 °F 88.9 °F 59.0 °F 36% 29.86 in 10.0 mi SE 9.2 mph - N/A   Clear
1:55 PM 89.6 °F 88.1 °F 57.2 °F 33% 29.87 in 10.0 mi ESE 6.9 mph - N/A   Partly Cloudy
2:15 PM 93.2 °F 91.9 °F 57.2 °F 30% 29.86 in 10.0 mi SE 3.5 mph - N/A   Clear
2:55 PM 95.0 °F 93.0 °F 55.4 °F 26% 29.85 in 10.0 mi SSE 8.1 mph - N/A   Clear
3:35 PM 96.8 °F 95.1 °F 55.4 °F 25% 29.85 in 10.0 mi WNW 11.5 mph - N/A   Clear
3:55 PM 96.8 °F 95.1 °F 55.4 °F 25% 29.85 in 10.0 mi SSE 4.6 mph - N/A   Clear
4:15 PM 95.0 °F 93.7 °F 57.2 °F 28% 29.85 in 10.0 mi NNE 6.9 mph - N/A   Clear
4:35 PM 89.6 °F 88.9 °F 59.0 °F 36% 29.84 in 10.0 mi NE 10.4 mph - N/A   Clear
4:55 PM 87.8 °F 86.5 °F 57.2 °F 35% 29.85 in 10.0 mi ENE 3.5 mph - N/A   Clear
5:15 PM 84.2 °F 83.5 °F 57.2 °F 40% 29.86 in 10.0 mi ENE 6.9 mph - N/A   Clear
5:35 PM 80.6 °F 80.8 °F 57.2 °F 45% 29.85 in 10.0 mi NNE 16.1 mph - N/A   Clear
5:55 PM 80.6 °F 80.5 °F 55.4 °F 42% 29.85 in 10.0 mi North 12.7 mph - N/A   Clear
6:15 PM 80.6 °F 80.3 °F 53.6 °F 39% 29.85 in 10.0 mi North 12.7 mph - N/A   Clear
6:35 PM 80.6 °F - 51.8 °F 37% 29.86 in 10.0 mi North 11.5 mph - N/A   Clear
6:55 PM 77.0 °F - 55.4 °F 47% 29.87 in 10.0 mi NNE 10.4 mph - N/A   Clear
7:35 PM 73.4 °F - 55.4 °F 53% 29.91 in 10.0 mi Calm Calm - N/A   Clear
7:55 PM 73.4 °F - 55.4 °F 53% 29.91 in 10.0 mi NW 4.6 mph - N/A   Clear
8:15 PM 71.6 °F - 53.6 °F 53% 29.91 in 10.0 mi Calm Calm - N/A   Clear
8:35 PM 71.6 °F - 57.2 °F 60% 29.92 in 10.0 mi NNW 3.5 mph - N/A   Clear
8:55 PM 71.6 °F - 57.2 °F 60% 29.92 in 10.0 mi NNW 6.9 mph - N/A   Clear
9:15 PM 71.6 °F - 55.4 °F 57% 29.92 in 10.0 mi NNW 6.9 mph - N/A   Clear
9:35 PM 68.0 °F - 57.2 °F 68% 29.92 in 10.0 mi North 8.1 mph - 0.06 in   Clear
9:55 PM 68.0 °F - 55.4 °F 64% 29.92 in 10.0 mi NNE 6.9 mph - 0.06 in   Clear
10:15 PM 66.2 °F - 55.4 °F 68% 29.92 in 10.0 mi NNE 11.5 mph - N/A   Clear
10:35 PM 64.4 °F - 55.4 °F 73% 29.93 in 10.0 mi North 11.5 mph - N/A   Clear
10:55 PM 64.4 °F - 55.4 °F 73% 29.92 in 10.0 mi North 10.4 mph - N/A   Clear
11:15 PM 64.4 °F - 55.4 °F 73% 29.92 in 10.0 mi North 10.4 mph - N/A   Clear
11:35 PM 64.4 °F - 55.4 °F 73% 29.92 in 10.0 mi North 10.4 mph - N/A   Clear
11:55 PM 62.6 °F - 55.4 °F 77% 29.93 in 10.0 mi North 10.4 mph - N/A   Clear